When you browse on this site, cookies collect data to enhance your experience and personalize the content and advertising you see.
Visit our Privacy Policy to learn more. By continuing to use the site, you agree to this use of cookies and data.
  • Em Portugal
  • Lista de países
  • Para 7 dias
  • Temperatura da água
  • Mapa do tempo
  • Widgets de tempo
  • user-avatar
    Iniciar Sessão

    Previsão horária em Luanda

    Hoje, 17 Novembro, Domingo

    Tempo Temperatura Precipitação Vento Pressão Humidade
    00:00 +28°C° 0.1 mm 2 m/s 751 mmHg 87%
    01:00 +27°C° 0.1 mm 2 m/s 751 mmHg 87%
    02:00 +27°C° 0.3 mm 3 m/s 751 mmHg 87%
    03:00 +27°C° 0.3 mm 3 m/s 751 mmHg 86%
    04:00 +27°C° 0.3 mm 4 m/s 751 mmHg 86%
    05:00 +28°C° 0.7 mm 4 m/s 751 mmHg 85%
    06:00 +28°C° 0.7 mm 4 m/s 752 mmHg 83%
    07:00 +28°C° 0.7 mm 4 m/s 752 mmHg 82%
    08:00 +29°C° 0.6 mm 4 m/s 753 mmHg 78%
    09:00 +29°C° 0.6 mm 4 m/s 753 mmHg 73%
    10:00 +30°C° 0.6 mm 3 m/s 753 mmHg 69%
    11:00 +30°C° 0.6 mm 3 m/s 753 mmHg 69%
    12:00 +30°C° 0.6 mm 3 m/s 752 mmHg 69%
    13:00 +30°C° 0.6 mm 3 m/s 752 mmHg 68%
    14:00 +30°C° 0.1 mm 3 m/s 752 mmHg 70%
    15:00 +30°C° 0.1 mm 3 m/s 751 mmHg 72%
    16:00 +29°C° 0.1 mm 4 m/s 750 mmHg 73%
    17:00 +29°C° 0 mm 4 m/s 751 mmHg 75%
    18:00 +28°C° 0 mm 4 m/s 752 mmHg 77%
    19:00 +28°C° 0 mm 4 m/s 752 mmHg 79%
    20:00 +28°C° 0 mm 4 m/s 752 mmHg 79%
    21:00 +27°C° 0 mm 4 m/s 753 mmHg 80%
    22:00 +27°C° 0 mm 4 m/s 753 mmHg 80%
    23:00 +27°C° 0 mm 4 m/s 753 mmHg 81%

    Amanhã, 18 Novembro, Segunda-feira

    Tempo Temperatura Precipitação Vento Pressão Humidade
    00:00 +27°C° 0 mm 3 m/s 752 mmHg 82%
    01:00 +27°C° 0 mm 2 m/s 752 mmHg 83%
    02:00 +26°C° 0 mm 2 m/s 752 mmHg 84%
    03:00 +26°C° 0 mm 2 m/s 751 mmHg 86%
    04:00 +26°C° 0 mm 2 m/s 751 mmHg 87%
    05:00 +26°C° 0 mm 2 m/s 751 mmHg 86%
    06:00 +27°C° 0 mm 2 m/s 752 mmHg 84%
    07:00 +27°C° 0 mm 1 m/s 753 mmHg 83%
    08:00 +28°C° 0 mm 1 m/s 753 mmHg 76%
    09:00 +30°C° 0 mm 1 m/s 753 mmHg 69%
    10:00 +31°C° 0 mm 1 m/s 753 mmHg 62%
    11:00 +32°C° 0 mm 2 m/s 752 mmHg 61%
    12:00 +33°C° 0 mm 3 m/s 752 mmHg 59%
    13:00 +34°C° 0 mm 4 m/s 751 mmHg 57%
    14:00 +33°C° 0 mm 4 m/s 751 mmHg 60%
    15:00 +32°C° 0 mm 5 m/s 751 mmHg 63%
    16:00 +30°C° 0 mm 5 m/s 750 mmHg 65%
    17:00 +30°C° 0 mm 5 m/s 751 mmHg 68%
    18:00 +29°C° 0 mm 4 m/s 752 mmHg 71%
    19:00 +28°C° 0 mm 4 m/s 752 mmHg 74%
    20:00 +28°C° 0 mm 4 m/s 753 mmHg 75%
    21:00 +28°C° 0 mm 3 m/s 753 mmHg 76%
    22:00 +27°C° 0 mm 3 m/s 753 mmHg 78%
    23:00 +27°C° 0 mm 3 m/s 753 mmHg 79%

    Depois de amanhã, 19 Novembro, Terça-feira

    Tempo Temperatura Precipitação Vento Pressão Humidade
    00:00 +27°C° 0 mm 2 m/s 753 mmHg 80%
    01:00 +27°C° 0 mm 2 m/s 753 mmHg 80%
    02:00 +27°C° 0 mm 2 m/s 752 mmHg 81%
    03:00 +27°C° 0 mm 2 m/s 752 mmHg 82%
    04:00 +26°C° 0 mm 2 m/s 752 mmHg 83%
    05:00 +27°C° 0 mm 2 m/s 752 mmHg 82%
    06:00 +27°C° 0 mm 2 m/s 753 mmHg 80%
    07:00 +27°C° 0 mm 2 m/s 753 mmHg 79%
    08:00 +29°C° 0 mm 2 m/s 753 mmHg 71%
    09:00 +30°C° 0 mm 2 m/s 753 mmHg 63%
    10:00 +32°C° 0 mm 2 m/s 753 mmHg 56%
    11:00 +34°C° 0 mm 3 m/s 753 mmHg 54%
    12:00 +34°C° 0 mm 4 m/s 752 mmHg 52%
    13:00 +35°C° 0 mm 5 m/s 752 mmHg 50%
    14:00 +34°C° 0 mm 5 m/s 751 mmHg 54%
    15:00 +33°C° 0 mm 6 m/s 751 mmHg 58%
    16:00 +32°C° 0 mm 6 m/s 750 mmHg 62%
    17:00 +30°C° 0 mm 5 m/s 751 mmHg 67%
    18:00 +29°C° 0 mm 5 m/s 751 mmHg 71%
    19:00 +28°C° 0 mm 4 m/s 752 mmHg 75%
    20:00 +28°C° 0 mm 4 m/s 752 mmHg 77%
    21:00 +28°C° 0 mm 4 m/s 753 mmHg 78%
    22:00 +27°C° 0 mm 3 m/s 753 mmHg 79%
    23:00 +27°C° 0 mm 3 m/s 753 mmHg 80%

    20 Novembro, Quarta-feira

    Tempo Temperatura Precipitação Vento Pressão Humidade
    00:00 +27°C° 0 mm 3 m/s 753 mmHg 81%
    01:00 +27°C° 0 mm 3 m/s 752 mmHg 82%
    02:00 +27°C° 0 mm 3 m/s 752 mmHg 82%
    03:00 +27°C° 0 mm 3 m/s 752 mmHg 81%
    04:00 +27°C° 0 mm 3 m/s 752 mmHg 81%
    05:00 +27°C° 0 mm 3 m/s 752 mmHg 80%
    06:00 +27°C° 0 mm 3 m/s 753 mmHg 79%
    07:00 +27°C° 0 mm 3 m/s 753 mmHg 78%
    08:00 +28°C° 0 mm 3 m/s 754 mmHg 73%
    09:00 +29°C° 0 mm 3 m/s 754 mmHg 68%
    10:00 +31°C° 0 mm 3 m/s 754 mmHg 64%
    11:00 +31°C° 0 mm 3 m/s 753 mmHg 61%
    12:00 +33°C° 0 mm 4 m/s 753 mmHg 59%
    13:00 +33°C° 0 mm 5 m/s 752 mmHg 57%
    14:00 +33°C° 0 mm 5 m/s 752 mmHg 58%
    15:00 +32°C° 0 mm 5 m/s 751 mmHg 59%
    16:00 +32°C° 0 mm 6 m/s 751 mmHg 60%
    17:00 +30°C° 0 mm 6 m/s 751 mmHg 64%
    18:00 +29°C° 0 mm 5 m/s 752 mmHg 68%
    19:00 +27°C° 0 mm 5 m/s 752 mmHg 73%
    20:00 +27°C° 0 mm 5 m/s 752 mmHg 74%
    21:00 +27°C° 0 mm 4 m/s 753 mmHg 75%
    22:00 +26°C° 0 mm 4 m/s 753 mmHg 76%
    23:00 +26°C° 0 mm 3 m/s 753 mmHg 77%

    21 Novembro, Quinta-feira

    Tempo Temperatura Precipitação Vento Pressão Humidade
    00:00 +26°C° 0 mm 3 m/s 753 mmHg 78%
    01:00 +26°C° 0 mm 3 m/s 752 mmHg 79%
    02:00 +25°C° 0 mm 3 m/s 752 mmHg 80%
    03:00 +25°C° 0 mm 3 m/s 752 mmHg 81%
    04:00 +25°C° 0 mm 3 m/s 752 mmHg 82%
    05:00 +25°C° 0 mm 3 m/s 753 mmHg 80%
    06:00 +26°C° 0 mm 3 m/s 753 mmHg 78%
    07:00 +26°C° 0 mm 3 m/s 753 mmHg 76%
    08:00 +27°C° 0 mm 3 m/s 754 mmHg 70%
    09:00 +28°C° 0 mm 2 m/s 754 mmHg 63%
    10:00 +29°C° 0 mm 1 m/s 754 mmHg 57%
    11:00 +30°C° 0 mm 2 m/s 753 mmHg 54%
    12:00 +31°C° 0 mm 2 m/s 753 mmHg 51%
    13:00 +33°C° 0 mm 3 m/s 752 mmHg 47%
    14:00 +32°C° 0 mm 4 m/s 752 mmHg 50%
    15:00 +32°C° 0 mm 5 m/s 751 mmHg 53%
    16:00 +32°C° 0 mm 6 m/s 751 mmHg 55%
    17:00 +30°C° 0 mm 6 m/s 751 mmHg 61%
    18:00 +28°C° 0 mm 6 m/s 751 mmHg 66%
    19:00 +27°C° 0 mm 5 m/s 752 mmHg 72%
    20:00 +27°C° 0 mm 5 m/s 752 mmHg 74%
    21:00 +26°C° 0 mm 5 m/s 753 mmHg 76%
    22:00 +26°C° 0 mm 4 m/s 753 mmHg 78%
    23:00 +26°C° 0 mm 4 m/s 753 mmHg 79%

    22 Novembro, Sexta-feira

    Tempo Temperatura Precipitação Vento Pressão Humidade
    00:00 +26°C° 0 mm 4 m/s 753 mmHg 81%
    01:00 +25°C° 0 mm 4 m/s 753 mmHg 82%
    02:00 +25°C° 0 mm 4 m/s 752 mmHg 84%
    03:00 +25°C° 0 mm 4 m/s 752 mmHg 85%
    04:00 +25°C° 0 mm 4 m/s 752 mmHg 86%
    05:00 +25°C° 0 mm 4 m/s 752 mmHg 84%
    06:00 +26°C° 0 mm 4 m/s 753 mmHg 82%
    07:00 +26°C° 0 mm 3 m/s 753 mmHg 79%
    08:00 +28°C° 0 mm 3 m/s 753 mmHg 69%
    09:00 +30°C° 0 mm 3 m/s 753 mmHg 59%
    10:00 +31°C° 0 mm 3 m/s 753 mmHg 49%
    11:00 +34°C° 0 mm 4 m/s 753 mmHg 45%
    12:00 +35°C° 0 mm 5 m/s 752 mmHg 42%
    13:00 +36°C° 0 mm 6 m/s 752 mmHg 38%
    14:00 +35°C° 0 mm 7 m/s 751 mmHg 42%
    15:00 +34°C° 0 mm 7 m/s 751 mmHg 47%
    16:00 +33°C° 0 mm 8 m/s 750 mmHg 51%
    17:00 +30°C° 0 mm 7 m/s 751 mmHg 57%
    18:00 +29°C° 0 mm 7 m/s 751 mmHg 64%
    19:00 +27°C° 0 mm 6 m/s 751 mmHg 70%
    20:00 +27°C° 0 mm 6 m/s 752 mmHg 73%
    21:00 +27°C° 0 mm 5 m/s 752 mmHg 75%
    22:00 +26°C° 0 mm 5 m/s 753 mmHg 77%
    23:00 +26°C° 0 mm 4 m/s 752 mmHg 79%
    Mostrar mais